This demonstration page uses our WeatherBlox Daily Observations layout. Learn more.

Left ArrowRight Arrow

39.29038, -76.61219

Hourly Observations for May 2, 2020

Temp ( °F °C ) Dew Point ( °F °C ) Humidity (%) Winds ( mph kmh ) Pressure ( in mb ) Visibility ( mi km ) Precip ( " mm )
12:54 am 00:54 undefined 57 13.9 45 7.2 64 64 undefined N/A 29.92 1013 N/A 0.00 0.00
1:54 am 01:54 undefined 56 13.3 44 6.7 65 65 undefined N/A 29.94 1014 N/A 0.00 0.00
2:54 am 02:54 undefined 56 13.3 43 6.1 62 62 undefined N/A 29.95 1014 N/A 0.00 0.00
3:54 am 03:54 undefined 55 12.8 42 5.6 62 62 undefined N/A 29.97 1015 N/A 0.00 0.00
4:54 am 04:54 undefined 54 12.2 42 5.6 64 64 undefined N/A 29.98 1015 N/A 0.00 0.00
5:54 am 05:54 undefined 53 11.7 42 5.6 66 66 undefined N/A 30.02 1017 N/A 0.00 0.00
6:54 am 06:54 undefined 54 12.2 42 5.6 64 64 undefined N/A 30.06 1018 N/A 0.00 0.00
7:54 am 07:54 undefined 57 13.9 42 5.6 58 58 undefined N/A 30.11 1020 N/A 0.00 0.00
8:54 am 08:54 undefined 60 15.6 42 5.6 52 52 undefined N/A 30.14 1021 N/A 0.00 0.00
9:54 am 09:54 undefined 63 17.2 41 5 45 45 undefined N/A 30.15 1021 N/A 0.00 0.00
10:54 am 10:54 undefined 66 18.9 40 4.4 39 39 undefined N/A 30.14 1021 N/A 0.00 0.00
11:54 am 11:54 undefined 68 20 36 2.2 31 31 undefined N/A 30.13 1020 N/A 0.00 0.00
12:54 pm 12:54 undefined 71 21.7 38 3.3 30 30 undefined N/A 30.11 1020 N/A 0.00 0.00
1:54 pm 13:54 undefined 72 22.2 35 1.7 26 26 undefined N/A 30.08 1019 N/A 0.00 0.00
2:54 pm 14:54 undefined 73 22.8 36 2.2 26 26 undefined N/A 30.05 1018 N/A 0.00 0.00
3:54 pm 15:54 undefined 74 23.3 35 1.7 24 24 undefined N/A 30.01 1016 N/A 0.00 0.00
4:54 pm 16:54 undefined 74 23.3 36 2.2 25 25 undefined N/A 29.98 1015 N/A 0.00 0.00
5:54 pm 17:54 undefined 72 22.2 34 1.1 25 25 undefined N/A 29.94 1014 N/A 0.00 0.00
6:54 pm 18:54 undefined 71 21.7 36 2.2 28 28 undefined N/A 29.94 1014 N/A 0.00 0.00
7:54 pm 19:54 undefined 70 21.1 39 3.9 32 32 undefined N/A 29.96 1015 N/A 0.00 0.00
8:54 pm 20:54 undefined 68 20 39 3.9 35 35 undefined N/A 29.96 1015 N/A 0.00 0.00
9:54 pm 21:54 undefined 66 18.9 40 4.4 39 39 undefined N/A 29.96 1015 N/A 0.00 0.00
10:54 pm 22:54 undefined 64 17.8 41 5 43 43 undefined N/A 29.95 1014 N/A 0.00 0.00
11:54 pm 23:54 undefined 63 17.2 42 5.6 47 47 undefined N/A 29.94 1014 N/A 0.00 0.00

Powered by AerisWeather